Flag for U.S.A. Weather past 2 weeks in Orlando, Florida, U.S.A.

Now
76 °F

Passing clouds.


Feels Like: 77 °F
Forecast: 66 / 78 °F
Wind: 6 mph from South

Location: Orlando Executive Airport

Current Time: Dec 22, 2014 at 1:47:56 PM

Latest Report: Dec 22, 2014 at 12:53 PM


Visibility: 10 mi

Pressure: 29.97 "Hg

Humidity: 74%

Dew point: 67 °F

Location of OrlandoLocation

Historic Weather in Orlando — Graph

°F

Orlando temperature yesterday

Maximum temperature yesterday: 78 °F (at 11:53 AM)
Minimum temperature yesterday: 62 °F (at 6:53 AM)
Average temperature yesterday: 69 °F

Past Weeks' High & Low Weather Summary

 TemperatureHumidityPressure
High78 °F (Dec 21, 11:53 AM)100% (Dec 15, 7:53 AM)30.29 "Hg (Dec 15, 7:53 AM)
Low43 °F (Dec 13, 3:53 AM)21% (Dec 13, 1:53 PM)29.97 "Hg (Dec 22, 12:53 PM)
Average59 °F69%30.12 "Hg
* Reported Dec 7 12:53 PM — Dec 22 12:53 PM, Orlando, Weather by CustomWeather, © 2014

Note: Actual official high and low records may vary slightly from our data, if they occured in-between our weather recording intervals... More about our weather records

Advertising

Orlando weather history for previous 24 hours

 ConditionsComfort  
Time TempWeatherWind HumidityBarometerVisibility
12:53 PM
Dec 22
76 °FPassing clouds.6 mph74%29.97 "Hg10 mi
11:53 AM74 °FSunny.13 mph79%30.00 "Hg10 mi
10:53 AM72 °FSunny.12 mph81%30.03 "Hg10 mi
9:53 AM69 °FLight rain. Sunny.7 mph90%30.04 "Hg10 mi
8:53 AM67 °FSunny.7 mph93%30.05 "Hg10 mi
7:53 AMN/APassing clouds.6 mphN/A30.02 "Hg9 mi
6:53 AMN/AClear.6 mphN/A30.00 "Hg10 mi
5:53 AM66 °FPassing clouds.8 mph96%30.01 "Hg9 mi
4:53 AM67 °FPassing clouds.6 mph97%30.01 "Hg8 mi
4:01 AM67 °FMostly cloudy.3 mph100%30.02 "Hg7 mi
2:53 AM67 °FFog.6 mph97%30.04 "Hg5 mi
1:53 AM66 °FOvercast.No wind93%30.06 "Hg8 mi
12:53 AM67 °FRain. Fog.6 mph93%30.07 "Hg4 mi
11:53 PM
Dec 21
68 °FRain. Fog.6 mph93%30.07 "Hg2 mi
10:53 PM68 °FMostly cloudy.3 mph96%30.06 "Hg7 mi
9:53 PM68 °FOvercast.5 mph96%30.04 "Hg8 mi
8:53 PM69 °FOvercast.6 mph96%30.05 "Hg10 mi
7:53 PM68 °FHeavy rain. Fog.5 mph96%30.07 "Hg1 mi
6:53 PM67 °FLight rain. Passing clouds.12 mph93%30.04 "Hg7 mi
5:53 PM74 °FMostly cloudy.6 mph71%30.04 "Hg10 mi
4:53 PM76 °FCloudy.No wind64%30.03 "Hg10 mi
3:53 PM76 °FMore clouds than sun.No wind64%30.02 "Hg10 mi
2:53 PM77 °FPassing clouds.8 mph60%30.03 "Hg10 mi
1:53 PM78 °FSunny.10 mph56%30.02 "Hg10 mi
Weather by CustomWeather, © 2014

See weather overviewHow to use our weather pages